CW2274 Weather Reports


time (UTC)temp
F
wind
direction
speed
knots
gust
knots
rain 1hr
in
rain 24hr
in
rain mn
in
humidity
%
barometer
mb
20210224231324 77 231 3.5 13.0 0.00 0.00 0.00 6 1014.5
20210224230814 79 254 7.0 13.0 0.00 0.00 0.00 6 1014.5
20210224230329 79 260 4.3 9.6 0.00 0.00 0.00 6 1014.6
20210224225821 79 283 2.6 9.6 0.00 0.00 0.00 7 1014.8
20210224225315 80 268 4.3 9.6 0.00 0.00 0.00 8 1014.8
20210224224830 80 258 2.6 7.8 0.00 0.00 0.00 7 1014.8
20210224224327 79 310 2.6 7.8 0.00 0.00 0.00 7 1014.8
20210224223821 79 269 4.3 7.8 0.00 0.00 0.00 8 1015.0
20210224223320 79 267 0.9 10.4 0.00 0.00 0.00 7 1014.9
20210224222948 79 281 5.2 10.4 0.00 0.00 0.00 7 1015.0
20210224222347 79 257 2.6 7.8 0.00 0.00 0.00 7 1015.0
20210224221821 80 258 2.6 9.6 0.00 0.00 0.00 7 1015.1
20210224221316 80 290 3.5 9.6 0.00 0.00 0.00 7 1015.3
20210224220832 80 276 4.3 7.8 0.00 0.00 0.00 7 1015.3
20210224220324 80 277 2.6 8.7 0.00 0.00 0.00 7 1015.3
20210224215815 80 282 3.5 9.6 0.00 0.00 0.00 7 1015.4
20210224215440 80 288 3.5 13.9 0.00 0.00 0.00 7 1015.3
20210224214934 81 280 5.2 9.6 0.00 0.00 0.00 7 1015.3
20210224214325 79 289 1.7 7.0 0.00 0.00 0.00 7 1015.4
20210224213819 79 249 0.9 8.7 0.00 0.00 0.00 7 1015.6
20210224213332 79 234 1.7 9.6 0.00 0.00 0.00 7 1015.6
20210224212919 79 261 4.3 8.7 0.00 0.00 0.00 7 1015.6
20210224212335 80 258 0.9 6.1 0.00 0.00 0.00 7 1015.7
20210224211816 78 226 1.7 8.7 0.00 0.00 0.00 6 1015.6
20210224211337 79 275 1.7 13.0 0.00 0.00 0.00 7 1015.5
20210224210825 80 197 6.1 13.0 0.00 0.00 0.00 6 1015.6
20210224210335 80 237 2.6 11.3 0.00 0.00 0.00 6 1015.7
20210224205835 79 250 7.0 11.3 0.00 0.00 0.00 6 1015.8
20210224205326 80 229 4.3 8.7 0.00 0.00 0.00 6 1015.9
20210224204851 80 244 3.5 8.7 0.00 0.00 0.00 6 1016.0
20210224204332 80 204 4.3 8.7 0.00 0.00 0.00 6 1016.1
20210224203829 78 230 3.5 8.7 0.00 0.00 0.00 6 1016.1
20210224203323 79 211 2.6 9.6 0.00 0.00 0.00 6 1016.1
20210224202919 79 206 3.5 10.4 0.00 0.00 0.00 6 1016.2
20210224202338 79 268 5.2 9.6 0.00 0.00 0.00 7 1016.3
20210224201825 79 226 2.6 6.1 0.00 0.00 0.00 6 1016.5
20210224201322 78 244 2.6 11.3 0.00 0.00 0.00 7 1016.7
20210224200812 79 278 3.5 11.3 0.00 0.00 0.00 7 1016.8
20210224200326 77 232 1.7 9.6 0.00 0.00 0.00 6 1016.8
20210224195823 79 269 5.2 9.6 0.00 0.00 0.00 7 1016.9
20210224195406 78 216 4.3 9.6 0.00 0.00 0.00 7 1016.9
20210224195020 79 247 4.3 7.8 0.00 0.00 0.00 7 1017.2
20210224194325 78 269 3.5 7.8 0.00 0.00 0.00 7 1017.3
20210224193822 78 233 2.6 7.8 0.00 0.00 0.00 7 1017.4
20210224193316 76 226 0.9 7.0 0.00 0.00 0.00 7 1017.5
20210224192923 76 227 3.5 7.0 0.00 0.00 0.00 7 1017.4
20210224192339 76 169 1.7 7.0 0.00 0.00 0.00 8 1017.6
20210224191821 75 220 2.6 7.8 0.00 0.00 0.00 8 1017.7
20210224191315 74 126 1.7 7.8 0.00 0.00 0.00 8 1017.7
20210224190830 76 94 3.5 6.1 0.00 0.00 0.00 8 1017.8
20210224190323 75 108 2.6 5.2 0.00 0.00 0.00 9 1018.0
20210224185816 74 110 2.6 6.1 0.00 0.00 0.00 8 1018.0
20210224185426 73 115 2.6 7.0 0.00 0.00 0.00 9 1018.3
20210224184933 74 113 3.5 5.2 0.00 0.00 0.00 8 1018.2
20210224184323 73 106 2.6 5.2 0.00 0.00 0.00 9 1018.3
20210224183818 73 106 3.5 7.0 0.00 0.00 0.00 9 1018.3
20210224183312 73 110 3.5 5.2 0.00 0.00 0.00 9 1018.4
20210224182903 73 115 2.6 5.2 0.00 0.00 0.00 10 1018.5
20210224182322 72 127 2.6 4.3 0.00 0.00 0.00 10 1018.6
20210224181820 71 130 2.6 4.3 0.00 0.00 0.00 10 1018.6
20210224181330 71 140 3.5 5.2 0.00 0.00 0.00 10 1018.6
20210224180837 71 150 2.6 5.2 0.00 0.00 0.00 10 1018.6
20210224180324 69 112 1.7 5.2 0.00 0.00 0.00 11 1018.8
20210224175818 69 111 2.6 5.2 0.00 0.00 0.00 11 1018.7
20210224175342 69 117 1.7 5.2 0.00 0.00 0.00 11 1018.8
20210224174834 68 113 2.6 5.2 0.00 0.00 0.00 12 1018.8
20210224174322 68 108 3.5 7.0 0.00 0.00 0.00 11 1018.8
20210224173819 68 116 2.6 7.0 0.00 0.00 0.00 12 1018.8
20210224173318 67 114 3.5 7.0 0.00 0.00 0.00 12 1018.8
20210224172852 66 96 3.5 7.0 0.00 0.00 0.00 12 1018.9
20210224172323 66 124 2.6 7.0 0.00 0.00 0.00 12 1018.8
20210224171817 64 133 3.5 7.8 0.00 0.00 0.00 13 1018.9
20210224171313 63 135 4.3 7.8 0.00 0.00 0.00 13 1018.9
20210224170827 63 105 3.5 7.8 0.00 0.00 0.00 13 1019.0
20210224170322 62 129 3.5 7.8 0.00 0.00 0.00 14 1019.1
20210224165814 61 99 3.5 7.8 0.00 0.00 0.00 14 1019.0
20210224165316 61 121 4.3 7.8 0.00 0.00 0.00 15 1019.1
20210224164845 60 140 2.6 7.8 0.00 0.00 0.00 15 1019.1
20210224164327 60 141 3.5 7.8 0.00 0.00 0.00 16 1019.1
20210224163816 59 116 3.5 7.8 0.00 0.00 0.00 16 1019.1
20210224163330 59 135 2.6 7.8 0.00 0.00 0.00 16 1019.0
20210224162826 57 100 3.5 7.8 0.00 0.00 0.00 17 1019.1
20210224162324 56 146 4.3 7.0 0.00 0.00 0.00 17 1019.2
20210224161820 56 106 2.6 7.0 0.00 0.00 0.00 18 1019.3
20210224161317 56 112 3.5 7.0 0.00 0.00 0.00 18 1019.2
20210224160833 55 127 3.5 7.8 0.00 0.00 0.00 19 1019.2
20210224160326 54 112 3.5 8.7 0.00 0.00 0.00 18 1019.2
20210224155817 53 149 3.5 8.7 0.00 0.00 0.00 19 1019.2
20210224155352 53 154 2.6 9.6 0.00 0.00 0.00 19 1019.2
20210224154902 52 147 3.5 9.6 0.00 0.00 0.00 19 1019.2
20210224154317 52 155 2.6 7.8 0.00 0.00 0.00 19 1019.2
20210224153816 52 147 3.5 7.8 0.00 0.00 0.00 20 1019.1
20210224153336 51 150 3.5 9.6 0.00 0.00 0.00 20 1019.1
20210224152830 51 196 1.7 9.6 0.00 0.00 0.00 21 1019.2
20210224152327 50 145 3.5 7.8 0.00 0.00 0.00 20 1019.1
20210224151815 50 164 3.5 11.3 0.00 0.00 0.00 21 1019.2
20210224151330 49 159 4.3 11.3 0.00 0.00 0.00 21 1019.3
20210224150833 49 159 2.6 7.8 0.00 0.00 0.00 21 1019.2
20210224150322 48 180 2.6 7.8 0.00 0.00 0.00 21 1019.0
20210224145819 48 150 3.5 7.8 0.00 0.00 0.00 22 1018.9
20210224145325 47 145 2.6 7.0 0.00 0.00 0.00 23 1019.0
20210224144920 46 128 3.5 7.8 0.00 0.00 0.00 24 1018.9
20210224144320 46 127 3.5 7.8 0.00 0.00 0.00 24 1018.8
20210224143814 45 117 4.3 7.8 0.00 0.00 0.00 24 1018.7
20210224143329 44 147 2.6 8.7 0.00 0.00 0.00 25 1018.7
20210224142911 44 136 2.6 8.7 0.00 0.00 0.00 25 1018.7
20210224142322 44 144 2.6 7.0 0.00 0.00 0.00 26 1018.6
20210224141816 43 152 2.6 7.0 0.00 0.00 0.00 26 1018.5
20210224141312 43 148 1.7 5.2 0.00 0.00 0.00 26 1018.6
20210224140826 43 148 1.7 5.2 0.00 0.00 0.00 26 1018.4
20210224140322 43 150 1.7 5.2 0.00 0.00 0.00 26 1018.5
20210224135816 44 151 3.5 5.2 0.00 0.00 0.00 25 1018.4
20210224135330 44 154 1.7 7.0 0.00 0.00 0.00 25 1018.4
20210224134831 44 155 2.6 7.8 0.00 0.00 0.00 25 1018.4
20210224134323 44 169 2.6 7.8 0.00 0.00 0.00 25 1018.4
20210224133819 44 164 2.6 7.0 0.00 0.00 0.00 25 1018.4
20210224133314 44 179 0.9 4.3 0.00 0.00 0.00 26 1018.4
20210224133011 44 179 0.9 4.3 0.00 0.00 0.00 26 1018.3
20210224132418 43 181 1.7 3.5 0.00 0.00 0.00 26 1018.4
20210224131818 44 181 0.9 4.3 0.00 0.00 0.00 26 1018.4
20210224131314 43 181 1.7 4.3 0.00 0.00 0.00 26 1018.3
20210224130829 43 182 0.9 2.6 0.00 0.00 0.00 27 1018.3
20210224130326 43 182 1.7 2.6 0.00 0.00 0.00 27 1018.2
20210224125820 43 182 0.9 2.6 0.00 0.00 0.00 27 1018.0
20210224125527 43 182 0.9 2.6 0.00 0.00 0.00 27 1018.1
20210224124922 43 182 0.9 1.7 0.00 0.00 0.00 27 1018.1
20210224124318 43 182 0.9 1.7 0.00 0.00 0.00 27 1018.3
20210224123815 43 182 0.0 2.6 0.00 0.00 0.00 27 1018.2
20210224123331 43 182 0.9 2.6 0.00 0.00 0.00 27 1018.0
20210224123000 43 182 0.9 2.6 0.00 0.00 0.00 27 1018.0
20210224122321 42 182 0.9 2.6 0.00 0.00 0.00 28 1018.1
20210224121817 43 182 0.0 2.6 0.00 0.00 0.00 28 1018.0
20210224121329 43 182 0.9 2.6 0.00 0.00 0.00 27 1018.0
20210224120823 43 182 0.0 1.7 0.00 0.00 0.00 28 1018.0
20210224120317 43 182 0.9 1.7 0.00 0.00 0.00 28 1017.9
20210224115819 43 182 0.9 2.6 0.00 0.00 0.00 27 1017.9
20210224115412 42 182 0.9 2.6 0.00 0.00 0.00 28 1017.8
20210224114916 43 182 0.9 2.6 0.00 0.00 0.00 27 1017.8
20210224114318 44 182 0.9 2.6 0.00 0.00 0.00 27 1017.5
20210224113832 44 182 0.9 2.6 0.00 0.00 0.00 27 1017.6
20210224113328 44 182 0.0 2.6 0.00 0.00 0.00 27 1017.6
20210224112849 44 182 0.0 3.5 0.00 0.00 0.00 27 1017.5
20210224112316 44 182 1.7 3.5 0.00 0.00 0.00 27 1017.5
20210224111815 44 183 0.9 3.5 0.00 0.00 0.00 27 1017.4
20210224111331 44 183 0.9 3.5 0.00 0.00 0.00 27 1017.4
20210224110826 44 183 1.7 4.3 0.00 0.00 0.00 26 1017.4
20210224110319 45 183 1.7 5.2 0.00 0.00 0.00 25 1017.5
20210224105814 46 183 2.6 5.2 0.00 0.00 0.00 25 1017.5
20210224105329 46 190 2.6 4.3 0.00 0.00 0.00 24 1017.4
20210224104837 45 192 2.6 4.3 0.00 0.00 0.00 25 1017.4
20210224104322 45 193 1.7 4.3 0.00 0.00 0.00 25 1017.4
20210224103816 46 194 0.9 3.5 0.00 0.00 0.00 25 1017.5
20210224103329 46 194 0.9 2.6 0.00 0.00 0.00 25 1017.5
20210224102846 46 194 0.9 3.5 0.00 0.00 0.00 25 1017.4
20210224102343 46 194 0.9 3.5 0.00 0.00 0.00 25 1017.5
20210224101812 47 194 1.7 3.5 0.00 0.00 0.00 24 1017.5
20210224101328 47 194 1.7 3.5 0.00 0.00 0.00 25 1017.5
20210224100823 46 194 0.9 3.5 0.00 0.00 0.00 25 1017.6
20210224100322 46 195 0.0 5.2 0.00 0.00 0.00 26 1017.7
20210224095815 46 194 1.7 5.2 0.00 0.00 0.00 27 1017.7
20210224095335 45 194 0.0 2.6 0.00 0.00 0.00 27 1017.8
20210224094900 46 194 0.9 2.6 0.00 0.00 0.00 26 1017.7
20210224094317 47 194 0.0 2.6 0.00 0.00 0.00 25 1017.9
20210224093812 47 194 0.9 3.5 0.00 0.00 0.00 25 1017.8
20210224093332 46 194 1.7 3.5 0.00 0.00 0.00 27 1017.8
20210224092845 46 194 0.9 2.6 0.00 0.00 0.00 27 1017.8
20210224092319 46 194 1.7 2.6 0.00 0.00 0.00 27 1017.7
20210224091812 46 194 1.7 2.6 0.00 0.00 0.00 26 1017.7
20210224091330 47 194 1.7 2.6 0.00 0.00 0.00 25 1017.7
20210224090822 47 194 0.9 2.6 0.00 0.00 0.00 25 1017.7
20210224090319 47 194 0.9 3.5 0.00 0.00 0.00 25 1017.9
20210224085829 47 194 0.9 3.5 0.00 0.00 0.00 25 1017.9
20210224085333 48 195 0.9 2.6 0.00 0.00 0.00 25 1018.0
20210224084932 48 194 0.9 3.5 0.00 0.00 0.00 25 1017.9
20210224084320 49 195 1.7 5.2 0.00 0.00 0.00 24 1017.9
20210224083835 49 195 0.9 5.2 0.00 0.00 0.00 24 1017.9
20210224083324 50 196 2.6 4.3 0.00 0.00 0.00 24 1018.0
20210224082851 50 199 0.9 5.2 0.00 0.00 0.00 24 1017.9
20210224082332 50 199 1.7 5.2 0.00 0.00 0.00 24 1017.7
20210224081824 49 207 1.7 4.3 0.00 0.00 0.00 24 1017.6
20210224081323 49 211 1.7 4.3 0.00 0.00 0.00 24 1017.6
20210224080818 49 211 0.9 4.3 0.00 0.00 0.00 25 1017.7
20210224080312 50 289 0.9 1.7 0.00 0.00 0.00 24 1017.6
20210224075827 49 289 0.9 1.7 0.00 0.00 0.00 25 1017.6
20210224075422 49 289 0.0 1.7 0.00 0.00 0.00 27 1017.6
20210224074844 49 289 0.0 1.7 0.00 0.00 0.00 26 1017.5
20210224074329 50 289 0.0 2.6 0.00 0.00 0.00 26 1017.5
20210224073823 48 289 0.9 2.6 0.00 0.00 0.00 29 1017.6
20210224073317 47 289 0.9 1.7 0.00 0.00 0.00 30 1017.5
20210224072854 48 289 0.9 1.7 0.00 0.00 0.00 29 1017.6
20210224072330 48 289 0.9 1.7 0.00 0.00 0.00 30 1017.6
20210224071821 48 289 0.9 1.7 0.00 0.00 0.00 30 1017.5
20210224071314 48 289 1.7 1.7 0.00 0.00 0.00 29 1017.5
20210224070828 48 289 1.7 1.7 0.00 0.00 0.00 30 1017.6
20210224070323 49 289 0.0 1.7 0.00 0.00 0.00 28 1017.5
20210224065824 48 289 0.9 1.7 0.00 0.00 0.00 29 1017.5
20210224065434 49 289 1.7 1.7 0.00 0.00 0.00 28 1017.5
20210224065424 49 289 1.7 1.7 0.00 0.00 0.00 28 1017.5
20210224064932 51 289 0.0 2.6 0.00 0.00 0.00 24 1017.5
20210224064322 49 289 1.7 2.6 0.00 0.00 0.00 28 1017.5
20210224063815 49 289 1.7 2.6 0.00 0.00 0.00 28 1017.5
20210224063332 49 289 0.9 1.7 0.00 0.00 0.00 28 1017.6
20210224062856 50 289 1.7 1.7 0.00 0.00 0.00 27 1017.6
20210224062318 50 289 0.0 2.6 0.00 0.00 0.00 27 1017.6
20210224061813 49 289 0.0 3.5 0.00 0.00 0.00 28 1017.5
20210224061338 51 289 2.6 3.5 0.00 0.00 0.00 26 1017.5
20210224060826 50 289 1.7 1.7 0.00 0.00 0.00 27 1017.5
20210224060318 51 289 0.0 1.7 0.00 0.00 0.00 26 1017.5
20210224055828 51 289 0.9 2.6 0.00 0.00 0.00 25 1017.5
20210224055342 52 289 1.7 2.6 0.00 0.00 0.00 25 1017.4
20210224054830 52 289 0.0 1.7 0.00 0.00 0.00 25 1017.5
20210224054331 50 289 0.0 1.7 0.00 0.00 0.00 25 1017.5
20210224053825 52 289 0.9 1.7 0.00 0.00 0.00 24 1017.5
20210224053324 53 289 0.0 2.6 0.00 0.00 0.00 23 1017.5
20210224052928 54 289 1.7 2.6 0.00 0.00 0.00 22 1017.4
20210224052313 54 289 1.7 3.5 0.00 0.00 0.00 22 1017.5
20210224051827 54 289 1.7 3.5 0.00 0.00 0.00 22 1017.5
20210224051320 54 289 2.6 3.5 0.00 0.00 0.00 22 1017.5
20210224050813 54 289 2.6 3.5 0.00 0.00 0.00 21 1017.5
20210224050329 55 289 1.7 3.5 0.00 0.00 0.00 22 1017.5
20210224045822 56 289 2.6 3.5 0.00 0.00 0.00 20 1017.5
20210224045315 56 289 2.6 3.5 0.00 0.00 0.00 20 1017.4
20210224044837 57 289 1.7 2.6 0.00 0.00 0.00 19 1017.3
20210224044328 58 289 1.7 2.6 0.00 0.00 0.00 19 1017.4
20210224043824 57 289 0.9 2.6 0.00 0.00 0.00 20 1017.4
20210224043331 57 289 1.7 2.6 0.00 0.00 0.00 19 1017.4
20210224042828 56 289 1.7 2.6 0.00 0.00 0.00 21 1017.2
20210224042326 56 289 0.9 2.6 0.00 0.00 0.00 20 1017.1
20210224041820 56 289 1.7 2.6 0.00 0.00 0.00 20 1017.1
20210224041317 57 289 1.7 3.5 0.00 0.00 0.00 19 1017.0
20210224040829 59 289 1.7 3.5 0.00 0.00 0.00 17 1016.9
20210224040320 58 289 2.6 3.5 0.00 0.00 0.00 18 1016.8
20210224035831 59 289 2.6 2.6 0.00 0.00 0.00 18 1016.7
20210224035325 58 289 1.7 2.6 0.00 0.00 0.00 18 1016.6
20210224034819 58 289 1.7 2.6 0.00 0.00 0.00 19 1016.7
20210224034318 58 289 1.7 2.6 0.00 0.00 0.00 18 1016.6
20210224033831 58 289 1.7 3.5 0.00 0.00 0.00 19 1016.6
20210224033324 59 289 1.7 3.5 0.00 0.00 0.00 18 1016.5
20210224032832 59 289 1.7 1.7 0.00 0.00 0.00 17 1016.4
20210224032323 59 289 0.0 2.6 0.00 0.00 0.00 18 1016.4
20210224031827 59 289 1.7 3.5 0.00 0.00 0.00 17 1016.3
20210224031324 59 289 1.7 3.5 0.00 0.00 0.00 18 1016.3
20210224030816 59 289 1.7 2.6 0.00 0.00 0.00 18 1016.2
20210224030313 59 289 1.7 2.6 0.00 0.00 0.00 18 1016.2
20210224025827 59 289 1.7 2.6 0.00 0.00 0.00 18 1016.2
20210224025336 60 289 0.9 1.7 0.00 0.00 0.00 17 1016.1
20210224024853 60 289 0.0 1.7 0.00 0.00 0.00 17 1016.0
20210224024333 60 290 0.9 1.7 0.00 0.00 0.00 18 1016.0
20210224023822 60 289 0.9 1.7 0.00 0.00 0.00 18 1015.9
20210224023320 61 289 0.9 1.7 0.00 0.00 0.00 16 1016.0
20210224022917 62 289 0.9 1.7 0.00 0.00 0.00 16 1016.0
20210224022329 63 289 0.9 1.7 0.00 0.00 0.00 15 1016.0
20210224021821 63 290 0.9 0.9 0.00 0.00 0.00 16 1015.9
20210224021337 64 289 0.0 0.9 0.00 0.00 0.00 14 1015.9
20210224020824 65 289 0.0 1.7 0.00 0.00 0.00 13 1015.8
20210224020318 65 289 0.0 1.7 0.00 0.00 0.00 13 1015.8
20210224015830 66 289 0.9 1.7 0.00 0.00 0.00 12 1015.8
20210224015323 65 289 0.9 2.6 0.00 0.00 0.00 13 1015.8
20210224014822 67 289 0.9 2.6 0.00 0.00 0.00 12 1015.6
20210224014317 67 289 0.9 3.5 0.00 0.00 0.00 11 1015.6
20210224013831 68 289 0.9 5.2 0.00 0.00 0.00 11 1015.6
20210224013327 68 289 1.7 5.2 0.00 0.00 0.00 11 1015.5
20210224012930 69 290 1.7 5.2 0.00 0.00 0.00 11 1015.5
20210224012318 69 290 1.7 5.2 0.00 0.00 0.00 10 1015.6
20210224011830 69 290 1.7 5.2 0.00 0.00 0.00 10 1015.5
20210224011326 70 287 1.7 6.1 0.00 0.00 0.00 10 1015.6
20210224010823 70 293 1.7 4.3 0.00 0.00 0.00 10 1015.4
20210224010317 71 314 1.7 5.2 0.00 0.00 0.00 10 1015.4
20210224005829 71 290 1.7 7.0 0.00 0.00 0.00 10 1015.4
20210224005350 72 312 1.7 7.0 0.00 0.00 0.00 10 1015.4
20210224004849 72 300 1.7 7.0 0.00 0.00 0.00 10 1015.3
20210224004329 73 331 2.6 7.0 0.00 0.00 0.00 10 1015.4
20210224003823 73 271 1.7 7.0 0.00 0.00 0.00 10 1015.4
20210224003324 73 300 2.6 7.0 0.00 0.00 0.00 9 1015.3
20210224002911 74 7 1.7 8.7 0.00 0.00 0.00 9 1015.3
20210224002347 74 280 3.5 8.7 0.00 0.00 0.00 9 1015.2
20210224001824 75 296 2.6 10.4 0.00 0.00 0.00 9 1015.1
20210224001318 75 291 5.2 10.4 0.00 0.00 0.00 8 1015.1
20210224000815 75 294 3.5 9.6 0.00 0.00 0.00 9 1015.2
20210224000329 76 319 2.6 9.6 0.00 0.00 0.00 8 1015.3
20210223235821 76 287 2.6 9.6 0.00 0.00 0.00 9 1015.2
20210223235336 77 297 3.5 8.7 0.00 0.00 0.00 8 1015.2
20210223234815 77 312 2.6 6.1 0.00 0.00 0.00 8 1015.0
20210223234329 78 312 2.6 5.2 0.00 0.00 0.00 7 1015.0
20210223233823 78 327 3.5 7.0 0.00 0.00 0.00 6 1015.0
20210223233319 78 340 2.6 8.7 0.00 0.00 0.00 6 1015.0
20210223232923 78 259 4.3 10.4 0.00 0.00 0.00 6 1015.0
20210223232340 79 290 3.5 10.4 0.00 0.00 0.00 6 1015.0
20210223231823 79 277 2.6 7.0 0.00 0.00 0.00 6 1015.0